This is the latest recevied weather packets stored in our database for station/object KC3QLX. If no packets are shown the sender has not sent any weather packets the latest 10 day(s).
| Time | Temp. | Humidity | Pressure | Rain* | Wind** | Luminosity | Snow |
|---|---|---|---|---|---|---|---|
| 1777561689 | 12.22° C | 88% | 1008.4 hPa | 0 mm | - | 188 W/m² | - |
| 1777561384 | 12.22° C | 88% | 1008.2 hPa | 0 mm | - | 173 W/m² | - |
| 1777561080 | 12.22° C | 88% | 1008.2 hPa | 0 mm | - | 203 W/m² | - |
| 1777560775 | 11.67° C | 90% | 1008.2 hPa | 0 mm | - | 251 W/m² | - |
| 1777560473 | 11.67° C | 91% | 1008.2 hPa | 0 mm | - | 251 W/m² | - |
| 1777560170 | 11.11° C | 92% | 1008.3 hPa | 0 mm | - | 212 W/m² | - |
| 1777559867 | 11.11° C | 94% | 1008.2 hPa | 0 mm | - | 191 W/m² | - |
| 1777559562 | 11.11° C | 94% | 1008.2 hPa | 0 mm | - | 72 W/m² | - |
| 1777559260 | 11.11° C | 95% | 1008 hPa | 0 mm | - | 79 W/m² | - |
| 1777558956 | 11.11° C | 95% | 1008.1 hPa | 0 mm | - | 96 W/m² | - |
| 1777558651 | 10.56° C | 98% | 1008.1 hPa | 0 mm | - | 184 W/m² | - |
| 1777558347 | 10.56° C | 99% | 1008 hPa | 0 mm | - | 337 W/m² | - |
| 1777558044 | 10° C | 99% | 1008 hPa | 0 mm | - | 161 W/m² | - |
| 1777557740 | 10° C | 99% | 1007.7 hPa | 0 mm | - | 156 W/m² | - |
| 1777557437 | 10.56° C | 99% | 1007.9 hPa | 0 mm | - | 220 W/m² | - |
| 1777557134 | 10° C | 99% | 1007.7 hPa | 0 mm | - | 570 W/m² | - |
| 1777556829 | 10° C | 99% | 1007.9 hPa | 0 mm | - | 197 W/m² | - |
| 1777556526 | 10° C | 99% | 1007.6 hPa | 0 mm | - | 189 W/m² | - |
| 1777556225 | 10° C | 99% | 1007.5 hPa | 0 mm | - | 186 W/m² | - |
| 1777555921 | 10° C | 99% | 1007.6 hPa | 0 mm | - | 177 W/m² | - |
| 1777555616 | 10° C | 99% | 1007.7 hPa | 0 mm | - | 105 W/m² | - |
| 1777555309 | 10° C | 99% | 1007.7 hPa | 0 mm | - | 91 W/m² | - |
| 1777555005 | 10° C | 99% | 1007.7 hPa | 0 mm | - | 102 W/m² | - |
| 1777554702 | 10.56° C | 99% | 1007.7 hPa | 0 mm | - | 152 W/m² | - |
| 1777554399 | 10° C | 99% | 1007.7 hPa | 0 mm | - | 124 W/m² | - |
* Rain latest hour (hover to see other rain measurements)
** Current wind speed in m/s (hover to see current wind gust speed)